Regional Weather Roundup
Issued by NWS

Home | Current Version | Previous Version | Text Only | Print | Product List | Glossary On
Versions: 1 2 3 4 5 6 7 8 9 10 11 12 13 14 15 16 17 18 19 20 21 22 23 24 25 26 27 28 29 30 31 32 33 34 35 36 37 38 39 40 41 42 43 44 45 46 47 48 49 50
562
ASUS44 KJAN 282210
RWRMS

MISSISSIPPI HOURLY WEATHER ROUNDUP
NATIONAL WEATHER SERVICE JACKSON MS
500 PM CDT THU AUG 28 2014

NOTE: "FAIR: INDICATES FEW OR NO CLOUDS BELOW 12,000 FEET WITH NO
SIGNIFICANT WEATHER AND/OR OBSTRUCTIONS TO VISIBILITY.

MSZ001>002-007>008-010>013-018>021-025>028-034>036-282300-
NORTHWEST MISSISSIPPI

CITY           SKY/WX    TMP DP  RH WIND       PRES   REMARKS
CLARKSDALE     FAIR      91  64  40 CALM      29.94F HX  93
CLEVELAND      FAIR      92  65  40 NW5       29.92F HX  94
GREENWOOD      SUNNY     93  60  33 CALM      29.93F HX  93
GREENVILLE     SUNNY     94  60  32 CALM      29.91F HX  94
GRENADA        FAIR      90  61  37 W3        29.94F
OLIVE BRANCH   PTSUNNY   90  66  45 SW5       29.95F HX  92
OXFORD         FAIR      90  64  43 W5        29.96F HX  91
TUNICA         PTCLDY    91  59  33 CALM      29.94F HX  90
$$

MSZ003>006-009-014>017-022>024-029>033-037>039-282300-
NORTHEAST MISSISSIPPI

CITY           SKY/WX    TMP DP  RH WIND       PRES   REMARKS
BELMONT        MOCLDY    90  67  46 W5        29.96F HX  92
COLUMBUS AFB   MOSUNNY   94  57  28 VRB2      29.94F HX  92
CORINTH        DRIZZLE   91  66  43 SE8       29.94S HX  94
GOLDN TRIANGLE MOSUNNY   91  57  31 SE12      29.95F HX  90
STARKVILLE     FAIR      93  55  27 CALM      29.94S HX  91
TUPELO         SUNNY     92  59  33 SW5       29.94F HX  91
$$

MSZ040-058-282300-
CENTRAL MISSISSIPPI

CITY           SKY/WX    TMP DP  RH WIND       PRES   REMARKS
JACKSON INTL   PTSUNNY   90  64  42 S5        29.93F HX  91
JACKSON HAWKNS MOSUNNY   88  68  51 SW9       29.94S HX  91
MERIDIAN KEY   PTSUNNY   89  63  41 S9        29.95S HX  90
MERIDIAN NAS   PTSUNNY   92  59  33 VRB6      29.94F HX  91
RAYMOND        FAIR      84  79  84 S5        29.94S HX  96
VICKSBURG      LGT RAIN  75  68  78 W9G22     29.94S
$$

MSZ059>079-282300-
SOUTH MISSISSIPPI

CITY           SKY/WX    TMP DP  RH WIND       PRES   REMARKS
BROOKHAVEN     FAIR      84  70  61 CALM      29.97F
COLUMBIA       MOCLDY    90  70  51 CALM      29.92F HX  95
HATTIESBURG    MOSUNNY   93  66  40 SE10      29.94F HX  96
MCCOMB         MOSUNNY   89  69  51 S6        29.94F HX  93
NATCHEZ        MOSUNNY   90  72  55 S3        29.94F HX  96
PINE BELT      PTSUNNY   90  64  43 CALM      29.96S HX  91
$$

MSZ080>082-282300-
COASTAL MISSISSIPPI

CITY           SKY/WX    TMP DP  RH WIND       PRES   REMARKS
BAY ST LOUIS   MOSUNNY  N/A N/A N/A S6        29.94F
BILOXI         CLOUDY    88  70  55 E7        29.94F HX  93
PASCAGOULA     PTSUNNY   83  70  64 NE10      29.96S
GULFPORT       CLOUDY    88  71  57 SE10      29.94S HX  94
$$



USA.gov is the U.S. government's official web portal to all federal, state and local government web resources and services.